Home > Time Zones > World Clock > Weather > Japan > Osaka > Past weeks

Flag for Japan Weather past 2 weeks in Osaka, Japan

Now
34 °F

Passing clouds.


Feels Like: 29 °F
Forecast: 31 / 42 °F
Wind: 6 mph from North

Location: Osaka International Airport

Current Time: Jan 28, 2015 at 8:02:11 AM

Latest Report: Jan 28, 2015 at 7:00 AM


Visibility: N/A

Pressure: 30.12 "Hg

Humidity: 75%

Dew point: 27 °F

Location of OsakaLocation

Historic Weather in Osaka — Graph

°F

Osaka temperature yesterday

Maximum temperature yesterday: 59 °F (at 2:00 PM)
Minimum temperature yesterday: 43 °F (at 8:00 PM)
Average temperature yesterday: 51 °F

Past Weeks' High & Low Weather Summary

 TemperatureHumidityPressure
High59 °F (Jan 27, 2:00 PM)100% (Jan 15, 7:00 AM)30.51 "Hg (Jan 15, 7:00 AM)
Low32 °F (Jan 14, 5:00 AM)32% (Jan 21, 1:00 PM)29.68 "Hg (Jan 22, 4:00 PM)
Average44 °F68%30.12 "Hg
* Reported Jan 13 7:00 AM — Jan 28 7:00 AM, Osaka, Weather by CustomWeather, © 2014

Note: Actual official high and low records may vary slightly from our data, if they occured in-between our weather recording intervals... More about our weather records

Advertising

Osaka weather history for previous 24 hours

 ConditionsComfort  
Time TempWeatherWind HumidityBarometerVisibility
7:00 AM
Jan 28
34 °FPassing clouds.6 mph75%30.12 "HgN/A
6:00 AM36 °FPassing clouds.6 mph65%30.12 "HgN/A
5:00 AM36 °FPassing clouds.9 mph70%30.09 "HgN/A
8:00 PM
Jan 27
43 °FPartly cloudy.17 mph71%29.98 "HgN/A
7:00 PM46 °FPassing clouds.16 mph71%29.95 "HgN/A
6:00 PM50 °FSprinkles. Partly cloudy.20 mph76%29.92 "HgN/A
5:00 PM50 °FSprinkles. Broken clouds.3 mph88%29.89 "HgN/A
4:00 PM54 °FScattered showers. Scattered clouds.5 mph72%29.89 "HgN/A
3:00 PM54 °FSprinkles. Partly sunny.10 mph72%29.86 "HgN/A
2:00 PM59 °FScattered showers. Scattered clouds.7 mph63%29.86 "HgN/A
1:00 PM57 °FPassing clouds.6 mph63%29.89 "HgN/A
12:00 PM55 °FScattered clouds.3 mph72%29.92 "HgN/A
11:00 AM52 °FFog.1 mph94%29.95 "Hg4 mi
10:00 AM50 °FSprinkles. Fog.2 mph94%29.98 "Hg4 mi
9:00 AM50 °FSprinkles. Fog.2 mph94%29.98 "Hg2 mi
8:00 AM50 °FFog.3 mph94%29.98 "Hg3 mi
Weather by CustomWeather, © 2014

See weather overviewHow to use our weather pages